Weather observations for the past three days for
Joslin Field - Magic Valley Regional Airport
Metric (Imperial)
Date Time (mdt) Wind (kph) Vis. (km) Weather Sky Cond. Temperature (ºC) Relative Humidity Wind Chill (°C) Heat Index (°C) Pressure Precipitation (cm)
Air Dwpt 6 hour altimeter (cm) sea level (mb) 1 hr 3 hr 6 hr
Max. Min.
21 09:53 NW 22 16.09 Fair CLR 11.1 -1.7 41% 76.5 1018.0
21 08:53 W 20 16.09 Fair CLR 9.4 -2.2 44% 7 76.48 1017.6
21 07:53 SW 19 16.09 Fair CLR 6.7 -2.2 53% 4 76.48 1017.4
21 06:53 SW 19 16.09 Fair CLR 3.9 -2.8 62% 0 76.43 1016.8
21 05:53 SW 15 16.09 Fair CLR 2.8 -3.3 6.1 2.2 65% -1 76.43 1016.9
21 04:53 S 17 16.09 Fair CLR 2.8 -3.3 65% -1 76.38 1016.5
21 03:53 SW 19 16.09 Fair CLR 3.3 -3.3 62% -1 76.35 1015.7
21 02:53 SW 20 16.09 Fair CLR 3.9 -3.3 60% 0 76.33 1015.7
21 01:53 W 19 16.09 Fair CLR 3.9 -2.8 62% 0 76.33 1015.3
21 00:53 W 20 16.09 Fair CLR 5 -3.3 55% 1 76.3 1015.1
20 23:53 SW 17 16.09 Fair CLR 3.9 -1.7 14.4 3.9 67% 0 76.3 1015.3
20 22:53 S 19 16.09 A Few Clouds FEW095 4.4 -1.1 68% 1 76.33 1015.5
20 21:53 S 13 16.09 Fair CLR 5 0 70% 2 76.3 1015.5
20 20:53 N 11 16.09 Partly Cloudy FEW050 SCT070 SCT090 8.3 0.6 59% 7 76.28 1014.9
20 19:53 NW 22 16.09 A Few Clouds FEW100 11.1 -2.8 38% 76.23 1014.1
20 18:53 W 22 G 39 16.09 Fair CLR 13.3 -3.9 30% 76.17 1013.4
20 17:53 W 26 G 41 16.09 Partly Cloudy SCT110 13.3 -2.8 15.6 12.2 33% 76.17 1012.9
20 16:53 NW 35 G 61 16.09 Fair and Breezy CLR 13.3 -3.9 30% 76.17 1013.1
20 15:53 NW 28 G 44 16.09 A Few Clouds FEW095 13.9 -0.6 37% 76.2 1013.3
20 14:53 NW 22 G 41 16.09 A Few Clouds FEW100 12.8 -2.8 34% 76.15 1012.8
20 13:53 W 24 G 43 16.09 Partly Cloudy FEW070 SCT100 13.9 -7.2 23% 76.17 1013.0
20 12:53 W 30 G 37 16.09 Mostly Cloudy BKN075 13.3 -5 28% 76.17 1013.4
20 11:53 NW 28 G 44 16.09 A Few Clouds FEW060 12.8 -3.3 13.9 4.4 33% 76.23 1013.6
20 10:53 W 28 G 44 16.09 Fair CLR 11.7 -1.7 40% 76.23 1013.7
20 09:53 W 30 G 43 16.09 Fair CLR 10 -1.7 44% 7 76.25 1014.5
20 08:53 W 26 G 37 16.09 Fair CLR 8.3 -2.2 48% 5 76.28 1014.4
20 07:53 W 24 16.09 Mostly Cloudy BKN110 6.7 -2.2 53% 3 76.25 1014.3
20 06:53 SW 26 16.09 Fair CLR 4.4 -3.3 58% 0 76.23 1014.1
20 05:53 W 26 G 50 16.09 Partly Cloudy SCT120 6.1 -3.3 7.8 5 51% 2 76.17 1013.2
20 04:53 SW 20 16.09 Mostly Cloudy BKN120 6.1 -2.8 53% 3 76.2 1013.3
20 03:53 SW 17 16.09 Overcast OVC110 6.1 -2.8 53% 3 76.15 1012.7
20 02:53 SW 24 16.09 Partly Cloudy SCT110 7.2 -5 42% 4 76.15 1012.5
20 01:53 W 20 16.09 A Few Clouds FEW120 6.1 -6.1 42% 3 76.17 1012.7
20 00:53 SW 17 16.09 Fair CLR 5 -5.6 47% 2 76.17 1013.1
19 23:53 SW 20 16.09 Fair CLR 6.7 -5.6 14.4 6.1 41% 3 76.2 1013.3
19 22:53 SW 19 16.09 Fair CLR 7.8 -6.1 37% 5 76.2 1013.5
19 21:53 W 15 16.09 Fair CLR 7.8 -5.6 38% 6 76.15 1013.2
19 20:53 NW 22 16.09 Fair CLR 11.7 -6.1 28% 76.12 1012.4
19 19:53 NW 28 G 41 16.09 Fair CLR 12.8 -6.7 25% 76.1 1012.1
19 18:53 NW 28 G 41 16.09 Fair CLR 13.3 -6.1 26% 76.12 1012.5
19 17:53 NW 24 G 41 16.09 Fair CLR 13.9 -5.6 16.1 12.8 26% 76.15 1012.8
19 16:53 NW 33 G 44 16.09 Fair and Breezy CLR 13.9 -6.1 25% 76.17 1013.0
19 15:53 NW 31 G 44 16.09 Fair CLR 14.4 -7.2 22% 76.2 1013.2
19 14:53 NW 30 G 46 16.09 Fair CLR 13.9 -6.7 24% 76.25 1013.3
19 13:53 W 30 G 52 16.09 Fair CLR 15.6 -6.1 22% 76.28 1013.5
19 12:53 W 24 G 44 16.09 Fair CLR 13.9 -5 27% 76.3 1014.3
19 11:53 W 39 G 52 16.09 Fair and Breezy CLR 12.8 -3.9 12.8 5.6 31% 76.33 1014.9
19 10:53 W 33 G 48 16.09 Fair and Breezy CLR 11.1 -3.9 35% 76.33 1014.8
19 09:53 W 35 G 50 16.09 Fair and Breezy CLR 9.4 -3.3 41% 6 76.35 1015.5
19 08:53 W 31 16.09 Fair CLR 8.3 -3.3 44% 5 76.33 1014.6
19 07:53 W 31 G 46 16.09 Fair CLR 6.7 -3.9 47% 3 76.3 1014.0
19 06:53 W 35 G 52 16.09 Fair and Breezy CLR 5.6 -4.4 49% 1 76.2 1012.3
19 05:53 W 33 G 48 16.09 Fair and Breezy CLR 6.1 -3.3 12.8 6.1 51% 2 76.12 1011.0
19 04:53 W 44 G 61 16.09 Partly Cloudy and Windy SCT100 7.8 -2.8 47% 3 76 1009.1
19 03:53 W 33 G 50 16.09 Fair and Breezy CLR 8.9 -2.8 44% 5 75.87 1007.7
19 02:53 W 26 G 41 16.09 Fair CLR 11.1 -2.8 38% 75.79 1006.2
19 01:53 SW 22 16.09 Fair CLR 10.6 -1.1 45% 75.74 1005.6
18 21:53 Calm 16.09 Fair CLR 9.4 0.6 55% 75.69 1005.9
18 20:53 NW 9 16.09 Fair CLR 17.2 -2.2 27% 75.69 1005.3
18 19:53 NW 11 16.09 Fair CLR 20 -1.1 24% 75.69 1005.4
18 18:53 NW 15 16.09 Fair CLR 21.7 -1.7 21% 75.72 1006.1
18 17:53 Vrbl 7 16.09 Fair CLR 22.2 -1.7 22.8 17.2 20% 75.77 1006.5
18 16:53 N 13 16.09 Fair CLR 22.8 -2.2 19% 75.82 1006.9
18 15:53 N 11 16.09 Fair CLR 21.1 -3.3 19% 75.9 1008.2
18 14:53 NW 11 16.09 Fair CLR 20.6 -2.8 21% 75.97 1009.6
18 13:53 NW 13 16.09 Fair CLR 20 -3.3 21% 76.05 1010.4
18 12:53 N 11 16.09 Fair CLR 18.9 -2.8 23% 76.15 1011.6
18 11:53 Vrbl 9 16.09 Fair CLR 17.2 -3.9 17.8 4.4 24% 76.23 1012.8
18 10:53 N 13 16.09 Fair CLR 16.1 -3.9 25% 76.25 1013.4
Date Time (mdt) Wind (kph) Vis. (km) Weather Sky Cond. Air Dwpt Max. Min. Relative Humidity Wind Chill (°C) Heat Index (°C) altimeter (cm) sea level (mb) 1 hr 3 hr 6 hr
6 hour
Temperature (ºC) Pressure Precipitation (cm)